Location: Bakov nad Jizerou
(50.4784°N, 14.9394°E)
Time: 16:43:16
(UTC+00:00)

Cosmos 2322 - Pass Details

Date: 26 October 2021
Orbit: 841 x 854 km, 71.0° (Epoch: 04 December)

Event Time Altitude Azimuth Distance (km) Brightness Sun altitude
Rises 18:18:01 0° 201° (SSW) 3,410 7.0 -24.6°
Reaches altitude 10° 18:20:28 10° 200° (SSW) 2,478 6.2 -25.0°
Maximum altitude 18:26:09 75° 116° (ESE) 888 3.5 -25.9°
Enters shadow 18:26:27 72° 86° (E) 897 3.5 -26.0°
